Nampa, ID

11:32 PM MDT on May 28, 2017 (GMT -0600)
Nampa

Weather History for KMAN - July, 2013

Change the Weather History Date:

Friday, July 19, 2013

  Actual Average (KBOI) Record (KBOI)
Temperature  
Mean Temperature 78 °F -  
Max Temperature 100 °F 91 °F 111 °F (1960)
Min Temperature 55 °F 58 °F 40 °F (1883)
Cooling Degree Days 12    
Growing Degree Days 28 (Base 50)    
Moisture  
Dew Point 42 °F    
Average Humidity 34    
Maximum Humidity 77    
Minimum Humidity 7    
Precipitation  
Precipitation 0.00 in - - ()
Sea Level Pressure  
Sea Level Pressure 29.96 in    
Wind  
Wind Speed 3 mph (NNW)    
Max Wind Speed 10 mph    
Max Gust Speed -    
Visibility 10 miles    
Events      
Averages and records for this station are not official NWS values.
T = Trace of Precipitation, MM = Missing Value Source: NWS Daily Summary

Daily Weather History Graph

Daily Weather History Graph

Search for Another Location

Airport or City:

Trip Planner

Search our weather history database for the weather conditions in past years. The results will help you decide how hot, cold, wet, or windy it might be!

Date:

Astronomy

Jul. 19, 2013 Rise Set
Actual Time 6:22 AM MDT 9:21 PM MDT
Civil Twilight 5:48 AM MDT 9:55 PM MDT
Nautical Twilight 5:04 AM MDT 10:39 PM MDT
Astronomical Twilight 4:13 AM MDT 11:30 PM MDT
Moon 6:28 PM MDT (7/19) 3:08 AM MDT (7/19)
Length of Visible Light 16h 07m
Length of Day
14h 59m
Waxing Gibbous, 87% of the Moon is Illuminated
Jul 19
Waxing Gibbous
Jul 22
Full
Jul 29
Last Quarter
Aug 6
New
Aug 14
First Quarter

Hourly Weather History & Observations

Time (MDT) Temp. Dew Point Humidity Pressure Visibility Wind Dir Wind Speed Gust Speed Precip Events Conditions
12:15 AM 68.0 °F 46.4 °F 46% 29.98 in 10.0 mi Calm Calm - N/A   Unknown
12:35 AM 66.2 °F 48.2 °F 52% 29.99 in 10.0 mi Calm Calm - N/A   Unknown
12:55 AM 66.2 °F 46.4 °F 49% 29.99 in 10.0 mi Calm Calm - N/A   Unknown
1:15 AM 62.6 °F 48.2 °F 59% 29.99 in 10.0 mi Calm Calm - N/A   Clear
1:35 AM 66.2 °F 46.4 °F 49% 29.99 in 10.0 mi Calm Calm - N/A   Clear
1:55 AM 60.8 °F 48.2 °F 63% 29.99 in 10.0 mi SE 4.6 mph - N/A   Unknown
2:15 AM 59.0 °F 48.2 °F 67% 29.99 in 10.0 mi SE 3.5 mph - N/A   Clear
2:35 AM 59.0 °F 48.2 °F 67% 29.99 in 10.0 mi Calm Calm - N/A   Unknown
2:55 AM 62.6 °F 48.2 °F 59% 29.99 in 10.0 mi Calm Calm - N/A   Unknown
3:15 AM 59.0 °F 48.2 °F 67% 29.99 in 10.0 mi SW 3.5 mph - N/A   Unknown
3:35 AM 59.0 °F 48.2 °F 67% 30.00 in 10.0 mi Calm Calm - N/A   Unknown
3:55 AM 59.0 °F 48.2 °F 67% 30.00 in 10.0 mi Calm Calm - N/A   Clear
4:15 AM 57.2 °F 48.2 °F 72% 30.00 in 10.0 mi Calm Calm - N/A   Unknown
4:35 AM 60.8 °F 48.2 °F 63% 30.00 in 10.0 mi WNW 4.6 mph - N/A   Unknown
4:55 AM 64.4 °F 46.4 °F 52% 30.01 in 10.0 mi SSE 5.8 mph - N/A   Unknown
5:15 AM 59.0 °F 46.4 °F 63% 30.01 in 10.0 mi Calm Calm - N/A   Unknown
5:35 AM 57.2 °F 46.4 °F 67% 30.02 in 10.0 mi Calm Calm - N/A   Unknown
5:55 AM 57.2 °F 46.4 °F 67% 30.02 in 10.0 mi Calm Calm - N/A   Unknown
6:15 AM 55.4 °F 48.2 °F 77% 30.03 in 10.0 mi Calm Calm - N/A   Clear
6:35 AM 57.2 °F 46.4 °F 67% 30.03 in 10.0 mi East 3.5 mph - N/A   Clear
6:55 AM 57.2 °F 46.4 °F 67% 30.04 in 10.0 mi Calm Calm - N/A   Clear
7:15 AM 57.2 °F 46.4 °F 67% 30.04 in 10.0 mi SE 3.5 mph - N/A   Clear
7:35 AM 59.0 °F 46.4 °F 63% 30.04 in 6.0 mi Calm Calm - N/A   Clear
7:55 AM 62.6 °F 46.4 °F 55% 30.05 in 10.0 mi Calm Calm - N/A   Clear
8:15 AM 64.4 °F 48.2 °F 56% 30.05 in 10.0 mi Calm Calm - N/A   Clear
8:35 AM 68.0 °F 46.4 °F 46% 30.05 in 10.0 mi Calm Calm - N/A   Clear
8:55 AM 69.8 °F 46.4 °F 43% 30.05 in 10.0 mi Calm Calm - N/A   Clear
9:15 AM 71.6 °F 46.4 °F 41% 30.05 in 10.0 mi WNW 4.6 mph - N/A   Clear
9:35 AM 73.4 °F 44.6 °F 36% 30.05 in 10.0 mi NW 3.5 mph - N/A   Clear
9:55 AM 75.2 °F 44.6 °F 34% 30.05 in 10.0 mi North 3.5 mph - N/A   Clear
10:15 AM 77.0 °F 44.6 °F 32% 30.04 in 10.0 mi NNW 5.8 mph - N/A   Clear
10:35 AM 78.8 °F 44.6 °F 30% 30.04 in 10.0 mi NNW 4.6 mph - N/A   Clear
10:55 AM 80.6 °F 39.2 °F 23% 30.03 in 10.0 mi North 4.6 mph - N/A   Clear
11:15 AM 82.4 °F 42.8 °F 25% 30.03 in 10.0 mi NNW 4.6 mph - N/A   Clear
11:35 AM 84.2 °F 41.0 °F 22% 30.03 in 10.0 mi NW 4.6 mph - N/A   Clear
11:55 AM 86.0 °F 41.0 °F 20% 30.02 in 10.0 mi NW 5.8 mph - N/A   Clear
12:15 PM 86.0 °F 39.2 °F 19% 30.02 in 10.0 mi NW 6.9 mph - N/A   Clear
12:35 PM 89.6 °F 37.4 °F 16% 30.01 in 10.0 mi Calm Calm - N/A   Clear
12:55 PM 91.4 °F 41.0 °F 17% 30.01 in 10.0 mi North 6.9 mph - N/A   Clear
1:15 PM 91.4 °F 41.0 °F 17% 30.00 in 10.0 mi NNW 6.9 mph - N/A   Clear
1:35 PM 91.4 °F 39.2 °F 16% 29.99 in 10.0 mi North 4.6 mph - N/A   Clear
1:55 PM 93.2 °F 39.2 °F 15% 29.98 in 10.0 mi North 5.8 mph - N/A   Clear
2:15 PM 93.2 °F 39.2 °F 15% 29.97 in 10.0 mi NNW 5.8 mph - N/A   Clear
2:35 PM 95.0 °F 42.8 °F 16% 29.97 in 10.0 mi WSW 5.8 mph - N/A   Clear
2:55 PM 95.0 °F 42.8 °F 16% 29.96 in 10.0 mi WNW 4.6 mph - N/A   Clear
3:15 PM 98.6 °F 32.0 °F 10% 29.95 in 10.0 mi ENE 5.8 mph - N/A   Clear
3:35 PM 96.8 °F 37.4 °F 13% 29.94 in 10.0 mi Calm Calm - N/A   Clear
3:55 PM 98.6 °F 33.8 °F 10% 29.93 in 10.0 mi North 3.5 mph - N/A   Clear
4:15 PM 100.4 °F 32.0 °F 9% 29.92 in 10.0 mi NNW 4.6 mph - N/A   Clear
4:35 PM 100.4 °F 24.8 °F 7% 29.92 in 10.0 mi North 5.8 mph - N/A   Clear
4:55 PM 100.4 °F 26.6 °F 7% 29.91 in 10.0 mi West 3.5 mph - N/A   Clear
5:15 PM 100.4 °F 30.2 °F 9% 29.90 in 10.0 mi North 4.6 mph - N/A   Clear
5:35 PM 100.4 °F 32.0 °F 9% 29.90 in 10.0 mi NW 9.2 mph - N/A   Clear
5:55 PM 100.4 °F 28.4 °F 8% 29.89 in 10.0 mi NNW 6.9 mph - N/A   Clear
6:15 PM 100.4 °F 32.0 °F 9% 29.88 in 10.0 mi North 9.2 mph - N/A   Clear
6:35 PM 100.4 °F 35.6 °F 11% 29.87 in 10.0 mi North 10.4 mph - N/A   Clear
6:55 PM 98.6 °F 37.4 °F 12% 29.86 in 10.0 mi North 10.4 mph - N/A   Clear
7:15 PM 98.6 °F 39.2 °F 13% 29.86 in 10.0 mi North 9.2 mph - N/A   Clear
7:35 PM 98.6 °F 37.4 °F 12% 29.85 in 10.0 mi North 10.4 mph - N/A   Clear
7:55 PM 98.6 °F 39.2 °F 13% 29.85 in 10.0 mi North 8.1 mph - N/A   Clear
8:15 PM 96.8 °F 41.0 °F 15% 29.85 in 10.0 mi North 5.8 mph - N/A   Clear
8:35 PM 95.0 °F 39.2 °F 14% 29.85 in 10.0 mi North 4.6 mph - N/A   Clear
8:55 PM 95.0 °F 39.2 °F 14% 29.85 in 10.0 mi NNW 3.5 mph - N/A   Clear
9:15 PM 93.2 °F 39.2 °F 15% 29.85 in 10.0 mi NW 3.5 mph - N/A   Clear
9:35 PM 91.4 °F 41.0 °F 17% 29.86 in 10.0 mi NW 4.6 mph - N/A   Clear
9:55 PM 87.8 °F 37.4 °F 17% 29.87 in 10.0 mi NNW 4.6 mph - N/A   Clear
10:15 PM 89.6 °F 39.2 °F 17% 29.87 in 10.0 mi NW 5.8 mph - N/A   Clear
10:35 PM 82.4 °F 44.6 °F 26% 29.88 in 10.0 mi Calm Calm - N/A   Clear
10:55 PM 78.8 °F 48.2 °F 34% 29.88 in 10.0 mi Calm Calm - N/A   Clear
11:15 PM 75.2 °F 48.2 °F 38% 29.89 in 10.0 mi WNW 4.6 mph - N/A   Clear
11:35 PM 78.8 °F 44.6 °F 30% 29.89 in 10.0 mi WNW 6.9 mph - N/A   Clear
11:55 PM 82.4 °F 41.0 °F 23% 29.89 in 10.0 mi WNW 8.1 mph - N/A   Unknown